Location: Łódź
(51.7951°N, 19.4477°E)
Time: 07:55:39
(UTC+01:00)

ISS - Pass Details

Date: 29 January 2019
Orbit: 403 x 411 km, 51.6° (Epoch: 17 February)

Event Time Altitude Azimuth Distance (km) Brightness Sun altitude
Rises 18:16:42 0° 258° (WSW) 2,333 1.8 -17.2°
Reaches altitude 10° 18:18:46 10° 258° (WSW) 1,475 0.3 -17.5°
Maximum altitude 18:22:05 81° 172° (S) 421 -3.9 -18.0°
Enters shadow 18:22:33 62° 98° (E) 466 -3.9 -18.1°
